User: anonymous   Login
Location: Hancock Field Station
(44.9202°N, 120.4259°W)
Time: 16:14:31
(UTC-07:00)
Language:

Cosmos 1707 - Orbit

View from above orbital plane
View from above orbital plane
View from above satellite
View from above satellite

Ground track
Ground track

The orbit data is extracted from the following two-line orbital elements,

1 16326U 85113A   17141.77994218 +.00000505 +00000-0 +26592-4 0  9995
2 16326 082.5140 234.2827 0011583 040.1602 320.0483 15.13266479713071
Epoch (UTC): 21 May 2017 18:43:07
Eccentricity: 0.0011583
inclination: 82.5140°
perigee height: 518 km
apogee height: 534 km
right ascension of ascending node: 234.2827°
argument of perigee: 40.1602°
revolutions per day: 15.13266479
mean anomaly at epoch: 320.0483°
orbit number at epoch: 71307

The dashed part of the orbit path shows where the satellite is in the earth's shadow,  

DLR